User: anonymous   Login
Location: Unspecified
(0.0000°N, 0.0000°E)
Time: 18:30:18
(UTC+00:00)
Language:

GEOEYE 1 - Orbit

View from above orbital plane
View from above orbital plane
View from above satellite
View from above satellite

Ground track
Ground track

The orbit data is extracted from the following two-line orbital elements,

1 33331U 08042A   17328.17216438  .00000134  00000-0  34408-4 0  9991
2 33331  98.0955  40.8486 0010576 119.3960 240.8369 14.64235734492511
Epoch (UTC): 24 November 2017 04:07:55
Eccentricity: 0.0010576
inclination: 98.0955°
perigee height: 672 km
apogee height: 687 km
right ascension of ascending node: 40.8486°
argument of perigee: 119.3960°
revolutions per day: 14.64235734
mean anomaly at epoch: 240.8369°
orbit number at epoch: 49251

The dashed part of the orbit path shows where the satellite is in the earth's shadow,  

DLR